Find SURCAL 5

NORAD ID: 1577 Int'l Des: 1965-065 Owner: NRL Country: US operational
LEOCIRCULARRETROGRADE

Live-Position

3D-Globus wird geladen...

Über SURCAL 5

Beschreibung wird geladen...

Nächste Überflüge

Passes for default location (London). Set your location on the main map for personalized predictions.

Höhenverlauf

Loading altitude history...

Zweizeiliger Elementsatz

1 1577U 65065J 26104.02947954 .00000072 00000-0 12225-3 0 9999
2 1577 90.0306 211.8905 0067938 284.8523 256.4502 13.36245115954082
Epoch: 14. Apr. 2026 • Age: 18 hours

Aktueller Status

Höhe 1181.8 km
Geschwindigkeit 7.24 km/s
Subsatellitenpunkt 59.11°N, 86.68°W
Typ other

Most Searched